owner,sensor,date,latitude,longitude,air_pressure(mBar),qcFlag 
TABS,ioos:station:wmo:42045:1,2002-09-12T19:39:00Z,26.2168,-96.4998,1017.47,11111222 
TABS,ioos:station:wmo:42045:1,2002-09-12T20:09:00Z,26.2168,-96.4998,1017.03,11111222 
TABS,ioos:station:wmo:42045:1,2002-09-12T20:39:00Z,26.2168,-96.4998,1015.12,11111222 
TABS,ioos:station:wmo:42045:1,2002-09-12T21:09:00Z,26.2168,-96.4998,1019.06,11111222 
TABS,ioos:station:wmo:42045:1,2002-09-12T21:39:00Z,26.2168,-96.4998,1010.49,11111222 
TABS,ioos:station:wmo:42045:1,2002-09-12T22:09:00Z,26.2168,-96.4998,1016.71,11111222 
TABS,ioos:station:wmo:42045:1,2002-09-12T22:39:00Z,26.2168,-96.4998,1007.89,11111222 
TABS,ioos:station:wmo:42045:1,2002-09-12T23:09:00Z,26.2168,-96.4998,1010.42,11111222 
TABS,ioos:station:wmo:42045:1,2002-09-12T23:39:00Z,26.2168,-96.4998,1002.93,11111222 
TABS,ioos:station:wmo:42045:1,2002-09-13T00:09:00Z,26.2168,-96.4998,1009.79,11111222 
TABS,ioos:station:wmo:42045:1,2002-09-13T00:39:00Z,26.2168,-96.4998,1003.06,11111222 
TABS,ioos:station:wmo:42045:1,2002-09-13T01:09:00Z,26.2168,-96.4998,1004.46,11111222 
TABS,ioos:station:wmo:42045:1,2002-09-13T01:39:00Z,26.2168,-96.4998,1004.08,11111222 
TABS,ioos:station:wmo:42045:1,2002-09-13T02:09:00Z,26.2168,-96.4998,1003.95,11111222 
TABS,ioos:station:wmo:42045:1,2002-09-13T02:39:00Z,26.2168,-96.4998,1003.7,11111222 
TABS,ioos:station:wmo:42045:1,2002-09-13T03:09:00Z,26.2168,-96.4998,1003.38,11111222 
TABS,ioos:station:wmo:42045:1,2002-09-13T03:39:00Z,26.2168,-96.4998,1003.19,11111222 
TABS,ioos:station:wmo:42045:1,2002-09-13T04:09:00Z,26.2168,-96.4998,1002.93,11111222 
TABS,ioos:station:wmo:42045:1,2002-09-13T04:39:00Z,26.2168,-96.4998,1002.74,11111222 
TABS,ioos:station:wmo:42045:1,2002-09-13T05:09:00Z,26.2168,-96.4998,1002.55,11111222 
TABS,ioos:station:wmo:42045:1,2002-09-13T05:39:00Z,26.2168,-96.4998,1002.24,11111222 
TABS,ioos:station:wmo:42045:1,2002-09-13T06:09:00Z,26.2168,-96.4998,1002.11,11111222 
TABS,ioos:station:wmo:42045:1,2002-09-13T06:39:00Z,26.2168,-96.4998,1001.67,11111222 
TABS,ioos:station:wmo:42045:1,2002-09-13T07:09:00Z,26.2168,-96.4998,1001.16,11111222 
TABS,ioos:station:wmo:42045:1,2002-09-13T07:39:00Z,26.2168,-96.4998,1004.65,11111222 
TABS,ioos:station:wmo:42045:1,2002-09-13T08:09:00Z,26.2168,-96.4998,1004.46,11111222 
TABS,ioos:station:wmo:42045:1,2002-09-13T08:39:00Z,26.2168,-96.4998,1004.52,11111222 
TABS,ioos:station:wmo:42045:1,2002-09-13T09:09:00Z,26.2168,-96.4998,1004.46,11111222 
TABS,ioos:station:wmo:42045:1,2002-09-13T09:39:00Z,26.2168,-96.4998,1004.46,11111222 
TABS,ioos:station:wmo:42045:1,2002-09-13T10:09:00Z,26.2168,-96.4998,1003.82,11111222 
TABS,ioos:station:wmo:42045:1,2002-09-13T10:39:00Z,26.2168,-96.4998,1003.51,11111222 
TABS,ioos:station:wmo:42045:1,2002-09-13T11:09:00Z,26.2168,-96.4998,1003.06,11111222 
TABS,ioos:station:wmo:42045:1,2002-09-13T11:39:00Z,26.2168,-96.4998,1002.93,11111222 
TABS,ioos:station:wmo:42045:1,2002-09-13T12:09:00Z,26.2168,-96.4998,1003.06,11111222 
TABS,ioos:station:wmo:42045:1,2002-09-13T12:39:00Z,26.2168,-96.4998,1004.27,11111222 
TABS,ioos:station:wmo:42045:1,2002-09-13T13:09:00Z,26.2168,-96.4998,1012.01,11111222 
TABS,ioos:station:wmo:42045:1,2002-09-13T13:39:00Z,26.2168,-96.4998,1022.23,11111222 
TABS,ioos:station:wmo:42045:1,2002-09-13T14:09:00Z,26.2168,-96.4998,1021.98,11111222 
TABS,ioos:station:wmo:42045:1,2002-09-13T14:39:00Z,26.2168,-96.4998,1020.96,11111222 
TABS,ioos:station:wmo:42045:1,2002-09-13T15:09:00Z,26.2168,-96.4998,1022.68,11111222 
TABS,ioos:station:wmo:42045:1,2002-09-13T15:39:00Z,26.2168,-96.4998,1022.99,11111222 
TABS,ioos:station:wmo:42045:1,2002-09-13T16:09:00Z,26.2168,-96.4998,1020.2,11111222 
TABS,ioos:station:wmo:42045:1,2002-09-13T16:39:00Z,26.2168,-96.4998,1010.23,11111222 
TABS,ioos:station:wmo:42045:1,2002-09-13T17:09:00Z,26.2168,-96.4998,1010.23,11111222 
TABS,ioos:station:wmo:42045:1,2002-09-13T17:39:00Z,26.2168,-96.4998,1009.92,11111222 
TABS,ioos:station:wmo:42045:1,2002-09-13T18:09:00Z,26.2168,-96.4998,1009.66,11111222 
TABS,ioos:station:wmo:42045:1,2002-09-13T18:39:00Z,26.2168,-96.4998,1009.54,11111222 
TABS,ioos:station:wmo:42045:1,2002-09-13T19:09:00Z,26.2168,-96.4998,1009.16,11111222 
TABS,ioos:station:wmo:42045:1,2002-09-13T19:39:00Z,26.2168,-96.4998,1008.96,11111222 
TABS,ioos:station:wmo:42045:1,2002-09-13T20:09:00Z,26.2168,-96.4998,1008.71,11111222 
TABS,ioos:station:wmo:42045:1,2002-09-13T20:39:00Z,26.2168,-96.4998,1008.27,11111222 
TABS,ioos:station:wmo:42045:1,2002-09-13T21:09:00Z,26.2168,-96.4998,1007.95,11111222 
TABS,ioos:station:wmo:42045:1,2002-09-13T21:39:00Z,26.2168,-96.4998,1007.82,11111222 
TABS,ioos:station:wmo:42045:1,2002-09-13T22:09:00Z,26.2168,-96.4998,1007.76,11111222 
TABS,ioos:station:wmo:42045:1,2002-09-13T22:39:00Z,26.2168,-96.4998,1007.57,11111222 
TABS,ioos:station:wmo:42045:1,2002-09-13T23:09:00Z,26.2168,-96.4998,1007.44,11111222 
TABS,ioos:station:wmo:42045:1,2002-09-13T23:39:00Z,26.2168,-96.4998,1007.31,11111222 
TABS,ioos:station:wmo:42045:1,2002-09-14T00:09:00Z,26.2168,-96.4998,1007.25,11111222 
TABS,ioos:station:wmo:42045:1,2002-09-14T00:39:00Z,26.2168,-96.4998,1007.31,11111222 
TABS,ioos:station:wmo:42045:1,2002-09-14T01:09:00Z,26.2168,-96.4998,1007.5,11111222 
TABS,ioos:station:wmo:42045:1,2002-09-14T01:39:00Z,26.2168,-96.4998,1007.7,11111222 
TABS,ioos:station:wmo:42045:1,2002-09-14T02:09:00Z,26.2168,-96.4998,1008.01,11111222 
TABS,ioos:station:wmo:42045:1,2002-09-14T02:39:00Z,26.2168,-96.4998,1008.27,11111222 
TABS,ioos:station:wmo:42045:1,2002-09-14T03:09:00Z,26.2168,-96.4998,1008.65,11111222 
TABS,ioos:station:wmo:42045:1,2002-09-14T03:39:00Z,26.2168,-96.4998,1008.9,11111222 
TABS,ioos:station:wmo:42045:1,2002-09-14T04:09:00Z,26.2168,-96.4998,1008.96,11111222 
TABS,ioos:station:wmo:42045:1,2002-09-14T04:39:00Z,26.2168,-96.4998,1009.03,11111222 
TABS,ioos:station:wmo:42045:1,2002-09-14T05:09:00Z,26.2168,-96.4998,1009.03,11111222 
TABS,ioos:station:wmo:42045:1,2002-09-14T05:39:00Z,26.2168,-96.4998,1009.28,11111222 
TABS,ioos:station:wmo:42045:1,2002-09-14T06:09:00Z,26.2168,-96.4998,1009.22,11111222 
TABS,ioos:station:wmo:42045:1,2002-09-14T06:39:00Z,26.2168,-96.4998,1009.16,11111222 
TABS,ioos:station:wmo:42045:1,2002-09-14T07:09:00Z,26.2168,-96.4998,1008.96,11111222 
TABS,ioos:station:wmo:42045:1,2002-09-14T07:39:00Z,26.2168,-96.4998,1008.77,11111222 
TABS,ioos:station:wmo:42045:1,2002-09-14T08:09:00Z,26.2168,-96.4998,1008.65,11111222 
TABS,ioos:station:wmo:42045:1,2002-09-14T08:39:00Z,26.2168,-96.4998,1008.58,11111222 
TABS,ioos:station:wmo:42045:1,2002-09-14T09:09:00Z,26.2168,-96.4998,1008.46,11111222 
TABS,ioos:station:wmo:42045:1,2002-09-14T09:39:00Z,26.2168,-96.4998,1008.46,11111222 
TABS,ioos:station:wmo:42045:1,2002-09-14T10:09:00Z,26.2168,-96.4998,1008.52,11111222 
TABS,ioos:station:wmo:42045:1,2002-09-14T10:39:00Z,26.2168,-96.4998,1008.46,11111222 
TABS,ioos:station:wmo:42045:1,2002-09-14T11:09:00Z,26.2168,-96.4998,1008.65,11111222 
TABS,ioos:station:wmo:42045:1,2002-09-14T11:39:00Z,26.2168,-96.4998,1008.9,11111222 
TABS,ioos:station:wmo:42045:1,2002-09-14T12:09:00Z,26.2168,-96.4998,1009.03,11111222 
TABS,ioos:station:wmo:42045:1,2002-09-14T12:39:00Z,26.2168,-96.4998,1009.6,11111222 
TABS,ioos:station:wmo:42045:1,2002-09-14T13:09:00Z,26.2168,-96.4998,1010.3,11111222 
TABS,ioos:station:wmo:42045:1,2002-09-14T13:39:00Z,26.2168,-96.4998,1010.87,11111222 
TABS,ioos:station:wmo:42045:1,2002-09-14T14:09:00Z,26.2168,-96.4998,1011.95,11111222 
TABS,ioos:station:wmo:42045:1,2002-09-14T14:39:00Z,26.2168,-96.4998,1014.8,11111222 
TABS,ioos:station:wmo:42045:1,2002-09-14T15:09:00Z,26.2168,-96.4998,1017.47,11111222 
TABS,ioos:station:wmo:42045:1,2002-09-14T15:39:00Z,26.2168,-96.4998,1019.18,11111222 
TABS,ioos:station:wmo:42045:1,2002-09-14T16:09:00Z,26.2168,-96.4998,1019.18,11111222 
TABS,ioos:station:wmo:42045:1,2002-09-14T16:39:00Z,26.2168,-96.4998,1007.06,11111222 
TABS,ioos:station:wmo:42045:1,2002-09-14T17:09:00Z,26.2168,-96.4998,1019.95,11111222 
TABS,ioos:station:wmo:42045:1,2002-09-14T17:39:00Z,26.2168,-96.4998,1010.23,11111222 
TABS,ioos:station:wmo:42045:1,2002-09-14T18:09:00Z,26.2168,-96.4998,1010.3,11111222 
TABS,ioos:station:wmo:42045:1,2002-09-14T18:39:00Z,26.2168,-96.4998,1009.66,11111222 
TABS,ioos:station:wmo:42045:1,2002-09-14T19:09:00Z,26.2168,-96.4998,1008.71,11111222 
TABS,ioos:station:wmo:42045:1,2002-09-14T19:39:00Z,26.2168,-96.4998,1009.47,11111222 
TABS,ioos:station:wmo:42045:1,2002-09-14T20:09:00Z,26.2168,-96.4998,1008.9,11111222 
TABS,ioos:station:wmo:42045:1,2002-09-14T20:39:00Z,26.2168,-96.4998,1008.71,11111222 
TABS,ioos:station:wmo:42045:1,2002-09-14T21:09:00Z,26.2168,-96.4998,1009.79,11111222 
TABS,ioos:station:wmo:42045:1,2002-09-14T21:39:00Z,26.2168,-96.4998,1009.16,11111222 
TABS,ioos:station:wmo:42045:1,2002-09-14T22:09:00Z,26.2168,-96.4998,1008.96,11111222 
TABS,ioos:station:wmo:42045:1,2002-09-14T22:39:00Z,26.2168,-96.4998,1009.09,11111222 
TABS,ioos:station:wmo:42045:1,2002-09-14T23:09:00Z,26.2168,-96.4998,1009.35,11111222 
TABS,ioos:station:wmo:42045:1,2002-09-14T23:39:00Z,26.2168,-96.4998,1009.41,11111222 
TABS,ioos:station:wmo:42045:1,2002-09-15T00:09:00Z,26.2168,-96.4998,1009.03,11111222 
TABS,ioos:station:wmo:42045:1,2002-09-15T00:39:00Z,26.2168,-96.4998,1009.47,11111222 
TABS,ioos:station:wmo:42045:1,2002-09-15T01:09:00Z,26.2168,-96.4998,1009.98,11111222 
TABS,ioos:station:wmo:42045:1,2002-09-15T01:39:00Z,26.2168,-96.4998,1010.3,11111222 
TABS,ioos:station:wmo:42045:1,2002-09-15T02:09:00Z,26.2168,-96.4998,1009.85,11111222 
TABS,ioos:station:wmo:42045:1,2002-09-15T02:39:00Z,26.2168,-96.4998,1011.0,11111222 
TABS,ioos:station:wmo:42045:1,2002-09-15T03:09:00Z,26.2168,-96.4998,1011.5,11111222 
TABS,ioos:station:wmo:42045:1,2002-09-15T03:39:00Z,26.2168,-96.4998,1011.5,11111222 
TABS,ioos:station:wmo:42045:1,2002-09-15T04:09:00Z,26.2168,-96.4998,1011.76,11111222 
TABS,ioos:station:wmo:42045:1,2002-09-15T04:39:00Z,26.2168,-96.4998,1012.58,11111222 
TABS,ioos:station:wmo:42045:1,2002-09-15T05:09:00Z,26.2168,-96.4998,1012.08,11111222 
TABS,ioos:station:wmo:42045:1,2002-09-15T05:39:00Z,26.2168,-96.4998,1012.27,11111222 
TABS,ioos:station:wmo:42045:1,2002-09-15T06:09:00Z,26.2168,-96.4998,1011.88,11111222 
TABS,ioos:station:wmo:42045:1,2002-09-15T06:39:00Z,26.2168,-96.4998,1012.14,11111222 
TABS,ioos:station:wmo:42045:1,2002-09-15T07:09:00Z,26.2168,-96.4998,1009.09,11111222 
TABS,ioos:station:wmo:42045:1,2002-09-15T07:39:00Z,26.2168,-96.4998,1003.63,11111222 
TABS,ioos:station:wmo:42045:1,2002-09-15T08:09:00Z,26.2168,-96.4998,1014.42,11111222 
TABS,ioos:station:wmo:42045:1,2002-09-15T08:39:00Z,26.2168,-96.4998,1016.01,11111222 
TABS,ioos:station:wmo:42045:1,2002-09-15T09:09:00Z,26.2168,-96.4998,1014.8,11111222 
TABS,ioos:station:wmo:42045:1,2002-09-15T09:39:00Z,26.2168,-96.4998,1017.72,11111222 
TABS,ioos:station:wmo:42045:1,2002-09-15T10:09:00Z,26.2168,-96.4998,1017.41,11111222 
TABS,ioos:station:wmo:42045:1,2002-09-15T10:39:00Z,26.2168,-96.4998,1017.98,11111222 
TABS,ioos:station:wmo:42045:1,2002-09-15T11:09:00Z,26.2168,-96.4998,1018.49,11111222 
TABS,ioos:station:wmo:42045:1,2002-09-15T11:39:00Z,26.2168,-96.4998,1018.74,11111222 
TABS,ioos:station:wmo:42045:1,2002-09-15T12:09:00Z,26.2168,-96.4998,1019.25,11111222 
TABS,ioos:station:wmo:42045:1,2002-09-15T12:39:00Z,26.2168,-96.4998,1022.29,11111222 
TABS,ioos:station:wmo:42045:1,2002-09-15T13:09:00Z,26.2168,-96.4998,1019.95,11111222 
TABS,ioos:station:wmo:42045:1,2002-09-15T13:39:00Z,26.2168,-96.4998,1023.37,11111222 
TABS,ioos:station:wmo:42045:1,2002-09-15T14:09:00Z,26.2168,-96.4998,1020.33,11111222 
TABS,ioos:station:wmo:42045:1,2002-09-15T14:39:00Z,26.2168,-96.4998,1025.02,11111222 
TABS,ioos:station:wmo:42045:1,2002-09-15T15:09:00Z,26.2168,-96.4998,1021.15,11111222 
TABS,ioos:station:wmo:42045:1,2002-09-15T15:39:00Z,26.2168,-96.4998,1019.76,11111222 
TABS,ioos:station:wmo:42045:1,2002-09-15T16:09:00Z,26.2168,-96.4998,1007.0,11111222 
TABS,ioos:station:wmo:42045:1,2002-09-15T16:39:00Z,26.2168,-96.4998,1026.55,11111222 
TABS,ioos:station:wmo:42045:1,2002-09-15T17:09:00Z,26.2168,-96.4998,1025.47,11111222 
TABS,ioos:station:wmo:42045:1,2002-09-15T17:39:00Z,26.2168,-96.4998,1025.09,11111222 
TABS,ioos:station:wmo:42045:1,2002-09-15T18:09:00Z,26.2168,-96.4998,1024.07,11111222 
TABS,ioos:station:wmo:42045:1,2002-09-15T18:39:00Z,26.2168,-96.4998,1021.66,11111222 
TABS,ioos:station:wmo:42045:1,2002-09-15T19:09:00Z,26.2168,-96.4998,1014.74,11111222 
TABS,ioos:station:wmo:42045:1,2002-09-15T19:39:00Z,26.2168,-96.4998,1015.12,11111222 
TABS,ioos:station:wmo:42045:1,2002-09-15T20:09:00Z,26.2168,-96.4998,1020.45,11111222 
TABS,ioos:station:wmo:42045:1,2002-09-15T20:39:00Z,26.2168,-96.4998,1021.28,11111222 
TABS,ioos:station:wmo:42045:1,2002-09-15T21:09:00Z,26.2168,-96.4998,1022.29,11111222 
TABS,ioos:station:wmo:42045:1,2002-09-15T21:39:00Z,26.2168,-96.4998,1023.82,11111222 
TABS,ioos:station:wmo:42045:1,2002-09-15T22:09:00Z,26.2168,-96.4998,1012.71,11111222 
TABS,ioos:station:wmo:42045:1,2002-09-15T22:39:00Z,26.2168,-96.4998,1018.04,11111222 
TABS,ioos:station:wmo:42045:1,2002-09-15T23:09:00Z,26.2168,-96.4998,1008.65,11111222 
TABS,ioos:station:wmo:42045:1,2002-09-15T23:39:00Z,26.2168,-96.4998,1006.68,11111222 
TABS,ioos:station:wmo:42045:1,2002-09-16T00:09:00Z,26.2168,-96.4998,1008.33,11111222 
TABS,ioos:station:wmo:42045:1,2002-09-16T00:39:00Z,26.2168,-96.4998,1005.6,11111222 
TABS,ioos:station:wmo:42045:1,2002-09-16T01:09:00Z,26.2168,-96.4998,1008.84,11111222 
TABS,ioos:station:wmo:42045:1,2002-09-16T01:39:00Z,26.2168,-96.4998,1008.08,11111222 
TABS,ioos:station:wmo:42045:1,2002-09-16T02:09:00Z,26.2168,-96.4998,1006.81,11111222 
TABS,ioos:station:wmo:42045:1,2002-09-16T02:39:00Z,26.2168,-96.4998,1009.98,11111222 
TABS,ioos:station:wmo:42045:1,2002-09-16T03:09:00Z,26.2168,-96.4998,1011.82,11111222 
TABS,ioos:station:wmo:42045:1,2002-09-16T03:39:00Z,26.2168,-96.4998,1013.54,11111222 
TABS,ioos:station:wmo:42045:1,2002-09-16T04:09:00Z,26.2168,-96.4998,1007.63,11111222 
TABS,ioos:station:wmo:42045:1,2002-09-16T04:39:00Z,26.2168,-96.4998,1008.27,11111222 
TABS,ioos:station:wmo:42045:1,2002-09-16T05:09:00Z,26.2168,-96.4998,1006.24,11111222 
TABS,ioos:station:wmo:42045:1,2002-09-16T05:39:00Z,26.2168,-96.4998,1013.47,11111222 
TABS,ioos:station:wmo:42045:1,2002-09-16T06:09:00Z,26.2168,-96.4998,1015.63,11111222 
TABS,ioos:station:wmo:42045:1,2002-09-16T06:39:00Z,26.2168,-96.4998,1014.74,11111222 
TABS,ioos:station:wmo:42045:1,2002-09-16T07:09:00Z,26.2168,-96.4998,1015.5,11111222 
TABS,ioos:station:wmo:42045:1,2002-09-16T07:39:00Z,26.2168,-96.4998,1017.09,11111222 
TABS,ioos:station:wmo:42045:1,2002-09-16T08:09:00Z,26.2168,-96.4998,1018.3,11111222 
TABS,ioos:station:wmo:42045:1,2002-09-16T08:39:00Z,26.2168,-96.4998,1019.69,11111222 
TABS,ioos:station:wmo:42045:1,2002-09-16T09:09:00Z,26.2168,-96.4998,1019.82,11111222 
TABS,ioos:station:wmo:42045:1,2002-09-16T09:39:00Z,26.2168,-96.4998,1019.76,11111222 
TABS,ioos:station:wmo:42045:1,2002-09-16T10:09:00Z,26.2168,-96.4998,1021.15,11111222 
TABS,ioos:station:wmo:42045:1,2002-09-16T10:39:00Z,26.2168,-96.4998,1022.61,11111222 
TABS,ioos:station:wmo:42045:1,2002-09-16T11:09:00Z,26.2168,-96.4998,1022.8,11111222 
TABS,ioos:station:wmo:42045:1,2002-09-16T11:39:00Z,26.2168,-96.4998,1023.06,11111222 
TABS,ioos:station:wmo:42045:1,2002-09-16T12:09:00Z,26.2168,-96.4998,1022.8,11111222 
TABS,ioos:station:wmo:42045:1,2002-09-16T12:39:00Z,26.2168,-96.4998,1023.82,11111222 
TABS,ioos:station:wmo:42045:1,2002-09-16T13:09:00Z,26.2168,-96.4998,1021.72,11111222 
TABS,ioos:station:wmo:42045:1,2002-09-16T13:39:00Z,26.2168,-96.4998,1017.41,11111222 
TABS,ioos:station:wmo:42045:1,2002-09-16T14:09:00Z,26.2168,-96.4998,1016.77,11111222 
TABS,ioos:station:wmo:42045:1,2002-09-16T14:39:00Z,26.2168,-96.4998,1013.15,11111222 
TABS,ioos:station:wmo:42045:1,2002-09-16T15:09:00Z,26.2168,-96.4998,1011.69,11111222 
TABS,ioos:station:wmo:42045:1,2002-09-16T15:39:00Z,26.2168,-96.4998,1026.8,11111222 
TABS,ioos:station:wmo:42045:1,2002-09-16T16:09:00Z,26.2168,-96.4998,1023.31,11111222 
TABS,ioos:station:wmo:42045:1,2002-09-16T16:39:00Z,26.2168,-96.4998,1016.01,11111222 
TABS,ioos:station:wmo:42045:1,2002-09-16T17:09:00Z,26.2168,-96.4998,1013.98,11111222 
TABS,ioos:station:wmo:42045:1,2002-09-16T17:39:00Z,26.2168,-96.4998,1006.81,11111222 
TABS,ioos:station:wmo:42045:1,2002-09-16T18:09:00Z,26.2168,-96.4998,1010.11,11111222 
TABS,ioos:station:wmo:42045:1,2002-09-16T18:39:00Z,26.2168,-96.4998,1011.44,11111222 
TABS,ioos:station:wmo:42045:1,2002-09-16T19:09:00Z,26.2168,-96.4998,1025.15,11111222 
TABS,ioos:station:wmo:42045:1,2002-09-16T19:39:00Z,26.2168,-96.4998,1021.34,11111222 
TABS,ioos:station:wmo:42045:1,2002-09-16T20:09:00Z,26.2168,-96.4998,1011.82,11111222 
TABS,ioos:station:wmo:42045:1,2002-09-16T20:39:00Z,26.2168,-96.4998,1014.36,11111222 
TABS,ioos:station:wmo:42045:1,2002-09-16T21:09:00Z,26.2168,-96.4998,1012.77,11111222 
TABS,ioos:station:wmo:42045:1,2002-09-16T21:39:00Z,26.2168,-96.4998,1012.9,11111222 
TABS,ioos:station:wmo:42045:1,2002-09-16T22:09:00Z,26.2168,-96.4998,1012.46,11111222 
TABS,ioos:station:wmo:42045:1,2002-09-16T22:39:00Z,26.2168,-96.4998,1012.33,11111222 
TABS,ioos:station:wmo:42045:1,2002-09-16T23:09:00Z,26.2168,-96.4998,1012.39,11111222 
TABS,ioos:station:wmo:42045:1,2002-09-16T23:39:00Z,26.2168,-96.4998,1012.46,11111222 
TABS,ioos:station:wmo:42045:1,2002-09-17T00:09:00Z,26.2168,-96.4998,1012.58,11111222 
TABS,ioos:station:wmo:42045:1,2002-09-17T00:39:00Z,26.2168,-96.4998,1012.96,11111222 
TABS,ioos:station:wmo:42045:1,2002-09-17T01:09:00Z,26.2168,-96.4998,1012.84,11111222 
TABS,ioos:station:wmo:42045:1,2002-09-17T01:39:00Z,26.2168,-96.4998,1012.9,11111222 
TABS,ioos:station:wmo:42045:1,2002-09-17T02:09:00Z,26.2168,-96.4998,1013.15,11111222 
TABS,ioos:station:wmo:42045:1,2002-09-17T02:39:00Z,26.2168,-96.4998,1013.41,11111222 
TABS,ioos:station:wmo:42045:1,2002-09-17T03:09:00Z,26.2168,-96.4998,1013.73,11111222 
TABS,ioos:station:wmo:42045:1,2002-09-17T03:39:00Z,26.2168,-96.4998,1013.79,11111222 
TABS,ioos:station:wmo:42045:1,2002-09-17T04:09:00Z,26.2168,-96.4998,1013.92,11111222 
TABS,ioos:station:wmo:42045:1,2002-09-17T04:39:00Z,26.2168,-96.4998,1013.85,11111222 
TABS,ioos:station:wmo:42045:1,2002-09-17T05:09:00Z,26.2168,-96.4998,1013.6,11111222 
TABS,ioos:station:wmo:42045:1,2002-09-17T05:39:00Z,26.2168,-96.4998,1013.28,11111222 
TABS,ioos:station:wmo:42045:1,2002-09-17T06:09:00Z,26.2168,-96.4998,1013.41,11111222 
TABS,ioos:station:wmo:42045:1,2002-09-17T06:39:00Z,26.2168,-96.4998,1013.03,11111222 
TABS,ioos:station:wmo:42045:1,2002-09-17T07:09:00Z,26.2168,-96.4998,1012.9,11111222 
TABS,ioos:station:wmo:42045:1,2002-09-17T07:39:00Z,26.2168,-96.4998,1012.77,11111222 
TABS,ioos:station:wmo:42045:1,2002-09-17T08:09:00Z,26.2168,-96.4998,1012.65,11111222 
TABS,ioos:station:wmo:42045:1,2002-09-17T08:39:00Z,26.2168,-96.4998,1012.52,11111222 
TABS,ioos:station:wmo:42045:1,2002-09-17T09:09:00Z,26.2168,-96.4998,1012.33,11111222 
TABS,ioos:station:wmo:42045:1,2002-09-17T09:39:00Z,26.2168,-96.4998,1012.14,11111222 
TABS,ioos:station:wmo:42045:1,2002-09-17T10:09:00Z,26.2168,-96.4998,1011.88,11111222 
TABS,ioos:station:wmo:42045:1,2002-09-17T10:39:00Z,26.2168,-96.4998,1012.08,11111222 
TABS,ioos:station:wmo:42045:1,2002-09-17T11:09:00Z,26.2168,-96.4998,1012.2,11111222 
TABS,ioos:station:wmo:42045:1,2002-09-17T11:39:00Z,26.2168,-96.4998,1012.33,11111222 
TABS,ioos:station:wmo:42045:1,2002-09-17T12:09:00Z,26.2168,-96.4998,1012.46,11111222 
TABS,ioos:station:wmo:42045:1,2002-09-17T12:39:00Z,26.2168,-96.4998,1012.71,11111222 
TABS,ioos:station:wmo:42045:1,2002-09-17T13:09:00Z,26.2168,-96.4998,1013.79,11111222 
TABS,ioos:station:wmo:42045:1,2002-09-17T13:39:00Z,26.2168,-96.4998,1013.54,11111222 
TABS,ioos:station:wmo:42045:1,2002-09-17T14:09:00Z,26.2168,-96.4998,1012.46,11111222 
TABS,ioos:station:wmo:42045:1,2002-09-17T14:39:00Z,26.2168,-96.4998,1013.09,11111222 
TABS,ioos:station:wmo:42045:1,2002-09-17T15:09:00Z,26.2168,-96.4998,1014.04,11111222 
TABS,ioos:station:wmo:42045:1,2002-09-17T15:39:00Z,26.2168,-96.4998,1014.68,11111222 
TABS,ioos:station:wmo:42045:1,2002-09-17T16:09:00Z,26.2168,-96.4998,1013.6,11111222 
TABS,ioos:station:wmo:42045:1,2002-09-17T16:39:00Z,26.2168,-96.4998,1013.73,11111222 
TABS,ioos:station:wmo:42045:1,2002-09-17T17:09:00Z,26.2168,-96.4998,1013.54,11111222 
TABS,ioos:station:wmo:42045:1,2002-09-17T17:39:00Z,26.2168,-96.4998,1013.41,11111222 
TABS,ioos:station:wmo:42045:1,2002-09-17T18:09:00Z,26.2168,-96.4998,1012.9,11111222 
TABS,ioos:station:wmo:42045:1,2002-09-17T18:39:00Z,26.2168,-96.4998,1012.58,11111222 
TABS,ioos:station:wmo:42045:1,2002-09-17T19:09:00Z,26.2168,-96.4998,1012.39,11111222 
TABS,ioos:station:wmo:42045:1,2002-09-17T19:39:00Z,26.2168,-96.4998,1011.95,11111222 
TABS,ioos:station:wmo:42045:1,2002-09-17T20:09:00Z,26.2168,-96.4998,1011.5,11111222 
TABS,ioos:station:wmo:42045:1,2002-09-17T20:39:00Z,26.2168,-96.4998,1011.12,11111222 
TABS,ioos:station:wmo:42045:1,2002-09-17T21:09:00Z,26.2168,-96.4998,1010.74,11111222 
TABS,ioos:station:wmo:42045:1,2002-09-17T21:39:00Z,26.2168,-96.4998,1010.49,11111222 
TABS,ioos:station:wmo:42045:1,2002-09-17T22:09:00Z,26.2168,-96.4998,1010.49,11111222 
TABS,ioos:station:wmo:42045:1,2002-09-17T22:39:00Z,26.2168,-96.4998,1010.04,11111222 
TABS,ioos:station:wmo:42045:1,2002-09-17T23:09:00Z,26.2168,-96.4998,1010.04,11111222 
TABS,ioos:station:wmo:42045:1,2002-09-17T23:39:00Z,26.2168,-96.4998,1009.79,11111222 
TABS,ioos:station:wmo:42045:1,2002-09-18T00:09:00Z,26.2168,-96.4998,1009.79,11111222 
TABS,ioos:station:wmo:42045:1,2002-09-18T00:39:00Z,26.2168,-96.4998,1010.17,11111222 
TABS,ioos:station:wmo:42045:1,2002-09-18T01:09:00Z,26.2168,-96.4998,1010.42,11111222 
TABS,ioos:station:wmo:42045:1,2002-09-18T01:39:00Z,26.2168,-96.4998,1010.68,11111222 
TABS,ioos:station:wmo:42045:1,2002-09-18T02:09:00Z,26.2168,-96.4998,1011.0,11111222 
TABS,ioos:station:wmo:42045:1,2002-09-18T02:39:00Z,26.2168,-96.4998,1010.87,11111222 
TABS,ioos:station:wmo:42045:1,2002-09-18T03:09:00Z,26.2168,-96.4998,1011.06,11111222 
TABS,ioos:station:wmo:42045:1,2002-09-18T03:39:00Z,26.2168,-96.4998,1011.06,11111222 
TABS,ioos:station:wmo:42045:1,2002-09-18T04:09:00Z,26.2168,-96.4998,1011.12,11111222 
TABS,ioos:station:wmo:42045:1,2002-09-18T04:39:00Z,26.2168,-96.4998,1010.81,11111222 
TABS,ioos:station:wmo:42045:1,2002-09-18T05:09:00Z,26.2168,-96.4998,1010.62,11111222 
TABS,ioos:station:wmo:42045:1,2002-09-18T05:39:00Z,26.2168,-96.4998,1010.49,11111222 
TABS,ioos:station:wmo:42045:1,2002-09-18T06:09:00Z,26.2168,-96.4998,1010.3,11111222 
TABS,ioos:station:wmo:42045:1,2002-09-18T06:39:00Z,26.2168,-96.4998,1010.23,11111222 
TABS,ioos:station:wmo:42045:1,2002-09-18T07:09:00Z,26.2168,-96.4998,1009.79,11111222 
TABS,ioos:station:wmo:42045:1,2002-09-18T07:39:00Z,26.2168,-96.4998,1009.6,11111222 
TABS,ioos:station:wmo:42045:1,2002-09-18T08:09:00Z,26.2168,-96.4998,1009.35,11111222 
TABS,ioos:station:wmo:42045:1,2002-09-18T08:39:00Z,26.2168,-96.4998,1009.03,11111222 
TABS,ioos:station:wmo:42045:1,2002-09-18T09:09:00Z,26.2168,-96.4998,1008.84,11111222 
TABS,ioos:station:wmo:42045:1,2002-09-18T09:39:00Z,26.2168,-96.4998,1008.65,11111222 
TABS,ioos:station:wmo:42045:1,2002-09-18T10:09:00Z,26.2168,-96.4998,1008.58,11111222 
TABS,ioos:station:wmo:42045:1,2002-09-18T10:39:00Z,26.2168,-96.4998,1008.65,11111222 
TABS,ioos:station:wmo:42045:1,2002-09-18T11:09:00Z,26.2168,-96.4998,1008.77,11111222 
TABS,ioos:station:wmo:42045:1,2002-09-18T11:39:00Z,26.2168,-96.4998,1009.03,11111222 
TABS,ioos:station:wmo:42045:1,2002-09-18T12:09:00Z,26.2168,-96.4998,1009.22,11111222 
TABS,ioos:station:wmo:42045:1,2002-09-18T12:39:00Z,26.2168,-96.4998,1009.6,11111222 
TABS,ioos:station:wmo:42045:1,2002-09-18T13:09:00Z,26.2168,-96.4998,1009.92,11111222 
TABS,ioos:station:wmo:42045:1,2002-09-18T13:39:00Z,26.2168,-96.4998,1009.79,11111222 
TABS,ioos:station:wmo:42045:1,2002-09-18T14:09:00Z,26.2168,-96.4998,1009.73,11111222 